JBU117 KBOS-KJFK

Flight info

Callsign JBU117
Flight time 0h 34m
Altitude 22000
Route SSOXS7 SSOXS BUZRD SEY PARCH4
Aircraft A21N/M-SDE2E3FGHIRWXY/LB1

Departure

Time 2026-05-07 01:20
Airport Boston Logan International Airport (KBOS)

Arrival

Time 2026-05-07 01:55
Airport John F. Kennedy International Airport (KJFK)
Time Latitude Longitude Altitude Speed Heading
2026-05-07 00:58 42.36555 -71.01604 22 ft 0 kts 19°
2026-05-07 01:08 42.36553 -71.01605 31 ft 2 kts 19°
2026-05-07 01:08 42.36530 -71.01616 31 ft 2 kts 19°
2026-05-07 01:09 42.36508 -71.01625 31 ft 4 kts 11°
2026-05-07 01:09 42.36482 -71.01630 31 ft 4 kts
2026-05-07 01:09 42.36460 -71.01639 31 ft 4 kts 54°
2026-05-07 01:09 42.36458 -71.01632 31 ft 4 kts 84°
2026-05-07 01:10 42.36451 -71.01599 31 ft 4 kts 118°
2026-05-07 01:10 42.36439 -71.01573 31 ft 4 kts 121°
2026-05-07 01:10 42.36425 -71.01542 31 ft 4 kts 121°
2026-05-07 01:10 42.36411 -71.01511 31 ft 4 kts 121°
2026-05-07 01:11 42.36407 -71.01501 31 ft 0 kts 121°
2026-05-07 01:13 42.36405 -71.01497 31 ft 2 kts 121°
2026-05-07 01:13 42.36396 -71.01477 31 ft 4 kts 121°
2026-05-07 01:13 42.36392 -71.01429 31 ft 7 kts 64°
2026-05-07 01:14 42.36440 -71.01382 31 ft 10 kts 23°
2026-05-07 01:14 42.36515 -71.01337 31 ft 13 kts 25°
2026-05-07 01:14 42.36609 -71.01282 31 ft 16 kts 17°
2026-05-07 01:14 42.36705 -71.01248 31 ft 10 kts 12°
2026-05-07 01:15 42.36779 -71.01264 31 ft 13 kts 324°
2026-05-07 01:15 42.36856 -71.01261 31 ft 13 kts 41°
2026-05-07 01:15 42.36934 -71.01168 31 ft 16 kts 40°
2026-05-07 01:15 42.37030 -71.01083 31 ft 17 kts 26°
2026-05-07 01:16 42.37143 -71.01009 31 ft 18 kts 26°
2026-05-07 01:16 42.37216 -71.00961 31 ft 8 kts 25°
2026-05-07 01:16 42.37239 -71.00946 31 ft 0 kts 25°
2026-05-07 01:16 42.37242 -71.00945 31 ft 2 kts 25°
2026-05-07 01:17 42.37268 -71.00928 31 ft 6 kts 25°
2026-05-07 01:17 42.37322 -71.00897 31 ft 11 kts 20°
2026-05-07 01:17 42.37404 -71.00858 31 ft 14 kts 19°
2026-05-07 01:17 42.37506 -71.00809 31 ft 17 kts 19°
2026-05-07 01:18 42.37624 -71.00752 31 ft 19 kts 20°
2026-05-07 01:18 42.37739 -71.00696 31 ft 14 kts 19°
2026-05-07 01:18 42.37821 -71.00651 31 ft 9 kts 39°
2026-05-07 01:18 42.37836 -71.00600 31 ft 4 kts 96°
2026-05-07 01:19 42.37836 -71.00594 31 ft 0 kts 99°
2026-05-07 01:19 42.37831 -71.00564 31 ft 6 kts 103°
2026-05-07 01:19 42.37809 -71.00490 31 ft 10 kts 142°
2026-05-07 01:19 42.37704 -71.00520 31 ft 34 kts 201°
2026-05-07 01:20 42.37196 -71.00760 31 ft 118 kts 200°
2026-05-07 01:20 42.36288 -71.01190 426 ft 142 kts 201°
2026-05-07 01:20 42.35347 -71.01607 1245 ft 144 kts 197°
2026-05-07 01:20 42.34286 -71.01475 1958 ft 171 kts 171°
2026-05-07 01:21 42.33187 -71.00594 2605 ft 201 kts 146°
2026-05-07 01:21 42.32393 -70.98871 3255 ft 226 kts 124°
2026-05-07 01:21 42.31549 -70.97044 4045 ft 234 kts 128°
2026-05-07 01:21 42.31081 -70.94862 4721 ft 260 kts 91°
2026-05-07 01:22 42.31398 -70.92297 5131 ft 291 kts 77°
2026-05-07 01:22 42.31869 -70.89609 5953 ft 302 kts 77°
2026-05-07 01:22 42.32332 -70.86818 6925 ft 307 kts 79°
2026-05-07 01:22 42.32769 -70.83975 7878 ft 311 kts 79°
2026-05-07 01:23 42.33119 -70.81064 8793 ft 316 kts 90°
2026-05-07 01:23 42.32769 -70.78160 9697 ft 313 kts 115°
2026-05-07 01:23 42.31875 -70.75450 10421 ft 323 kts 121°
2026-05-07 01:23 42.30826 -70.72652 10826 ft 344 kts 125°
2026-05-07 01:24 42.29405 -70.69973 11171 ft 358 kts 139°
2026-05-07 01:24 42.27468 -70.67794 11483 ft 368 kts 156°
2026-05-07 01:24 42.25095 -70.66392 11825 ft 379 kts 167°
2026-05-07 01:24 42.22566 -70.65237 12383 ft 388 kts 168°
2026-05-07 01:25 42.20017 -70.64098 13076 ft 393 kts 168°
2026-05-07 01:25 42.17405 -70.62943 13799 ft 395 kts 170°
2026-05-07 01:25 42.14733 -70.62239 14447 ft 387 kts 182°
2026-05-07 01:25 42.12061 -70.62334 15146 ft 380 kts 194°
2026-05-07 01:26 42.09518 -70.63171 15847 ft 376 kts 203°
2026-05-07 01:26 42.07021 -70.64302 16575 ft 379 kts 204°
2026-05-07 01:26 42.04516 -70.65449 17301 ft 382 kts 204°
2026-05-07 01:26 42.01987 -70.66586 18028 ft 385 kts 203°
2026-05-07 01:27 41.99428 -70.67722 18651 ft 389 kts 204°
2026-05-07 01:27 41.96840 -70.68864 19180 ft 393 kts 204°
2026-05-07 01:27 41.94224 -70.70012 19725 ft 398 kts 204°
2026-05-07 01:27 41.91579 -70.71173 20254 ft 401 kts 205°
2026-05-07 01:28 41.88914 -70.72341 20779 ft 406 kts 205°
2026-05-07 01:28 41.86247 -70.73508 21294 ft 410 kts 206°
2026-05-07 01:28 41.83563 -70.74814 21711 ft 407 kts 211°
2026-05-07 01:28 41.81051 -70.76545 21846 ft 411 kts 216°
2026-05-07 01:29 41.78531 -70.78460 21833 ft 417 kts 217°
2026-05-07 01:29 41.76001 -70.80384 21856 ft 418 kts 217°
2026-05-07 01:29 41.73463 -70.82303 21866 ft 418 kts 217°
2026-05-07 01:29 41.70927 -70.84206 21862 ft 419 kts 216°
2026-05-07 01:30 41.68388 -70.86107 21853 ft 418 kts 216°
2026-05-07 01:30 41.66705 -70.87367 21852 ft 418 kts 216°
2026-05-07 01:30 41.63306 -70.89913 21872 ft 416 kts 217°
2026-05-07 01:30 41.60775 -70.91807 21839 ft 416 kts 217°
2026-05-07 01:31 41.58249 -70.93693 21844 ft 417 kts 217°
2026-05-07 01:31 41.55771 -70.95686 21843 ft 411 kts 221°
2026-05-07 01:31 41.53632 -70.98072 21847 ft 403 kts 231°
2026-05-07 01:31 41.51802 -71.00870 21857 ft 399 kts 236°
2026-05-07 01:32 41.47630 -71.07750 21858 ft 399 kts 236°
2026-05-07 01:32 41.40551 -71.19253 21854 ft 402 kts 236°
2026-05-07 01:32 41.33420 -71.30783 21858 ft 402 kts 236°
2026-05-07 01:32 41.26322 -71.42221 21866 ft 402 kts 236°
2026-05-07 01:33 41.21603 -71.49809 21869 ft 402 kts 235°
2026-05-07 01:33 41.17221 -71.57856 21876 ft 393 kts 248°
2026-05-07 01:33 41.15145 -71.70215 21882 ft 389 kts 261°
2026-05-07 01:33 41.13406 -71.84406 21878 ft 390 kts 261°
2026-05-07 01:34 41.11620 -71.98573 21886 ft 388 kts 261°
2026-05-07 01:34 41.08674 -72.17100 21885 ft 389 kts 253°
2026-05-07 01:34 41.06377 -72.26328 21893 ft 389 kts 253°
2026-05-07 01:34 41.03107 -72.39491 21024 ft 378 kts 253°
2026-05-07 01:35 41.00304 -72.50700 18137 ft 362 kts 252°
2026-05-07 01:35 40.99501 -72.53913 17285 ft 363 kts 252°
2026-05-07 01:35 40.98456 -72.58087 16434 ft 358 kts 252°
2026-05-07 01:35 40.97934 -72.60160 16045 ft 355 kts 252°
2026-05-07 01:36 40.97160 -72.63240 15435 ft 351 kts 251°
2026-05-07 01:36 40.96390 -72.66300 14823 ft 349 kts 251°
2026-05-07 01:36 40.95629 -72.69317 14282 ft 344 kts 251°
2026-05-07 01:36 40.94875 -72.72306 13719 ft 341 kts 251°
2026-05-07 01:37 40.94127 -72.75263 13067 ft 335 kts 251°
2026-05-07 01:37 40.93367 -72.78111 12717 ft 319 kts 247°
2026-05-07 01:37 40.92203 -72.80513 12496 ft 306 kts 230°
2026-05-07 01:37 40.90597 -72.82270 12305 ft 293 kts 221°
2026-05-07 01:38 40.88981 -72.83788 12026 ft 278 kts 220°
2026-05-07 01:38 40.87448 -72.85223 11614 ft 262 kts 221°
2026-05-07 01:38 40.85989 -72.86604 11113 ft 255 kts 221°
2026-05-07 01:38 40.84556 -72.87971 10666 ft 253 kts 221°
2026-05-07 01:39 40.83146 -72.89319 10207 ft 253 kts 221°
2026-05-07 01:39 40.81713 -72.90690 9813 ft 257 kts 221°
2026-05-07 01:39 40.80270 -72.92072 9523 ft 255 kts 221°
2026-05-07 01:39 40.78833 -72.93446 9301 ft 255 kts 221°
2026-05-07 01:40 40.77397 -72.94819 9094 ft 255 kts 221°
2026-05-07 01:40 40.75966 -72.96184 8978 ft 251 kts 222°
2026-05-07 01:40 40.74554 -72.97532 8981 ft 250 kts 222°
2026-05-07 01:40 40.73142 -72.98880 8989 ft 250 kts 222°
2026-05-07 01:41 40.71897 -73.00426 8982 ft 241 kts 239°
2026-05-07 01:41 40.71247 -73.02379 8592 ft 235 kts 254°
2026-05-07 01:41 40.70834 -73.04473 8036 ft 237 kts 257°
2026-05-07 01:41 40.70457 -73.06592 7544 ft 238 kts 257°
2026-05-07 01:42 40.70089 -73.08710 7083 ft 236 kts 257°
2026-05-07 01:42 40.69725 -73.10821 6638 ft 236 kts 257°
2026-05-07 01:42 40.69355 -73.12945 6301 ft 239 kts 257°
2026-05-07 01:42 40.68986 -73.15080 5971 ft 239 kts 257°
2026-05-07 01:43 40.68620 -73.17214 5715 ft 239 kts 257°
2026-05-07 01:43 40.68257 -73.19350 5527 ft 239 kts 257°
2026-05-07 01:43 40.67896 -73.21492 5361 ft 240 kts 257°
2026-05-07 01:43 40.67615 -73.23650 5186 ft 240 kts 268°
2026-05-07 01:44 40.68000 -73.25797 5022 ft 246 kts 291°
2026-05-07 01:44 40.68848 -73.27766 4971 ft 248 kts 296°
2026-05-07 01:44 40.69760 -73.29690 4978 ft 248 kts 297°
2026-05-07 01:44 40.70681 -73.31618 4993 ft 248 kts 297°
2026-05-07 01:45 40.71587 -73.33515 4930 ft 238 kts 297°
2026-05-07 01:45 40.72451 -73.35302 4766 ft 224 kts 297°
2026-05-07 01:45 40.73261 -73.36960 4589 ft 212 kts 297°
2026-05-07 01:45 40.74048 -73.38565 4417 ft 206 kts 297°
2026-05-07 01:46 40.74825 -73.40151 4244 ft 205 kts 297°
2026-05-07 01:46 40.75585 -73.41696 4054 ft 195 kts 297°
2026-05-07 01:46 40.76305 -73.43143 3852 ft 182 kts 297°
2026-05-07 01:46 40.76985 -73.44492 3663 ft 172 kts 297°
2026-05-07 01:47 40.77648 -73.45803 3479 ft 171 kts 297°
2026-05-07 01:47 40.78308 -73.47112 3293 ft 171 kts 297°
2026-05-07 01:47 40.78964 -73.48418 3118 ft 170 kts 297°
2026-05-07 01:47 40.79601 -73.49723 2951 ft 168 kts 297°
2026-05-07 01:48 40.80220 -73.51026 2775 ft 167 kts 297°
2026-05-07 01:48 40.80832 -73.52325 2594 ft 166 kts 297°
2026-05-07 01:48 40.81432 -73.53620 2416 ft 165 kts 297°
2026-05-07 01:48 40.81794 -73.54995 2233 ft 161 kts 268°
2026-05-07 01:49 40.81428 -73.56377 2060 ft 163 kts 240°
2026-05-07 01:49 40.80779 -73.57599 1956 ft 162 kts 237°
2026-05-07 01:49 40.80111 -73.58801 1952 ft 161 kts 237°
2026-05-07 01:49 40.79453 -73.59997 1962 ft 161 kts 237°
2026-05-07 01:50 40.78793 -73.61196 1972 ft 163 kts 237°
2026-05-07 01:50 40.78131 -73.62409 1984 ft 163 kts 237°
2026-05-07 01:50 40.77468 -73.63624 1994 ft 163 kts 237°
2026-05-07 01:50 40.76807 -73.64826 1997 ft 162 kts 237°
2026-05-07 01:51 40.76136 -73.66030 1998 ft 164 kts 237°
2026-05-07 01:51 40.75292 -73.67054 1998 ft 167 kts 221°
2026-05-07 01:51 40.74279 -73.67834 1995 ft 168 kts 216°
2026-05-07 01:51 40.73284 -73.68605 2034 ft 170 kts 217°
2026-05-07 01:52 40.72263 -73.69405 1847 ft 170 kts 217°
2026-05-07 01:52 40.71251 -73.70199 1611 ft 167 kts 217°
2026-05-07 01:52 40.70268 -73.70971 1378 ft 159 kts 216°
2026-05-07 01:52 40.69387 -73.71661 1178 ft 131 kts 216°
2026-05-07 01:53 40.68654 -73.72252 922 ft 121 kts 215°
2026-05-07 01:53 40.67928 -73.72808 810 ft 121 kts 214°
2026-05-07 01:53 40.67205 -73.73385 632 ft 122 kts 211°
2026-05-07 01:53 40.66487 -73.73940 467 ft 120 kts 211°
2026-05-07 01:54 40.65761 -73.74514 336 ft 122 kts 211°
2026-05-07 01:54 40.65023 -73.75092 204 ft 128 kts 208°
2026-05-07 01:54 40.64252 -73.75695 47 ft 127 kts 211°
2026-05-07 01:54 40.63546 -73.76255 26 ft 96 kts 209°
2026-05-07 01:55 40.63226 -73.76493 24 ft 29 kts 208°
2026-05-07 01:55 40.63055 -73.76651 24 ft 31 kts 224°
2026-05-07 01:55 40.62955 -73.76825 23 ft 21 kts 239°
2026-05-07 01:55 40.62930 -73.76971 22 ft 12 kts 290°
2026-05-07 01:56 40.62982 -73.77077 21 ft 15 kts 303°
2026-05-07 01:56 40.63039 -73.77203 21 ft 14 kts 297°
2026-05-07 01:56 40.63091 -73.77328 21 ft 17 kts 301°
2026-05-07 01:56 40.63158 -73.77473 22 ft 20 kts 300°
2026-05-07 01:57 40.63233 -73.77641 25 ft 21 kts 301°
2026-05-07 01:57 40.63295 -73.77778 30 ft 12 kts 300°
2026-05-07 01:57 40.63359 -73.77835 25 ft 13 kts 23°
2026-05-07 01:57 40.63440 -73.77758 23 ft 16 kts 32°
2026-05-07 01:58 40.63544 -73.77679 22 ft 18 kts 31°
2026-05-07 01:58 40.63659 -73.77586 22 ft 21 kts 32°
2026-05-07 01:58 40.63794 -73.77483 21 ft 23 kts 30°
2026-05-07 01:58 40.63936 -73.77371 22 ft 25 kts 31°
2026-05-07 01:59 40.64085 -73.77254 22 ft 24 kts 30°
2026-05-07 01:59 40.64208 -73.77159 22 ft 20 kts 31°
2026-05-07 01:59 40.64328 -73.77063 22 ft 21 kts 30°
2026-05-07 01:59 40.64451 -73.76993 21 ft 17 kts
2026-05-07 02:00 40.64575 -73.76987 21 ft 19 kts
2026-05-07 02:00 40.64701 -73.77011 22 ft 16 kts 332°
2026-05-07 02:00 40.64783 -73.77115 24 ft 17 kts 300°
2026-05-07 02:00 40.64832 -73.77220 22 ft 11 kts 301°
2026-05-07 02:01 40.64838 -73.77310 23 ft 10 kts 219°
2026-05-07 02:01 40.64773 -73.77362 21 ft 12 kts 211°
2026-05-07 02:01 40.64701 -73.77384 21 ft 11 kts 191°
2026-05-07 02:01 40.64647 -73.77396 21 ft 6 kts 190°
2026-05-07 02:02 40.64626 -73.77401 21 ft 1 kts 190°
2026-05-07 02:02 40.64625 -73.77401 21 ft 0 kts 190°